Location: Ajisawe
(8.4333°N, 4.3833°E)
Time: 14:48:31
(UTC+00:00)

Cosmos 1346 Rocket - Pass Details

Date: 07 June 2020
Orbit: 531 x 548 km, 81.2° (Epoch: 07 July)

Event Time Altitude Azimuth Distance (km) Brightness Sun altitude
Exits shadow 03:35:52 38° 348° (NNW) 843 3.8 -24.7°
Drops below altitude 10° 03:38:25 10° 359° (N) 1,804 5.8 -24.2°
Sets 03:40:34 0° 2° (N) 2,693 6.8 -23.7°
